When you browse on this site, cookies collect data to enhance your experience and personalize the content and advertising you see.
Visit our Privacy Policy to learn more. By continuing to use the site, you agree to this use of cookies and data.
  • In Hungary
  • List of Countries
  • For 7 days
  • Water Temperature
  • Weather Map
  • News
  • Weather Widgets
  • user-avatar
    Login

    Hourly Weather Nilmozero

    Today, 22 August, Thursday

    Time Temperature Precipitation Wind Pressure Humidity
    00:00 +13°C° 0 mm 2 mps 759 mmHg 92%
    01:00 +12°C° 0 mm 2 mps 759 mmHg 92%
    02:00 +12°C° 0 mm 2 mps 759 mmHg 93%
    03:00 +12°C° 0 mm 2 mps 759 mmHg 93%
    04:00 +12°C° 0 mm 2 mps 759 mmHg 93%
    05:00 +12°C° 0 mm 2 mps 759 mmHg 92%
    06:00 +13°C° 0 mm 2 mps 759 mmHg 86%
    07:00 +15°C° 0 mm 2 mps 758 mmHg 79%
    08:00 +16°C° 0 mm 1 mps 758 mmHg 73%
    09:00 +18°C° 0 mm 1 mps 758 mmHg 68%
    10:00 +19°C° 0 mm 1 mps 757 mmHg 64%
    11:00 +20°C° 0 mm 1 mps 757 mmHg 59%
    12:00 +20°C° 0.3 mm 1 mps 757 mmHg 61%
    13:00 +20°C° 0.3 mm 1 mps 757 mmHg 62%
    14:00 +19°C° 0.3 mm 2 mps 757 mmHg 64%
    15:00 +19°C° 0.3 mm 2 mps 756 mmHg 66%
    16:00 +19°C° 0.3 mm 1 mps 756 mmHg 69%
    17:00 +19°C° 0.3 mm 1 mps 756 mmHg 71%
    18:00 +17°C° 0.1 mm 2 mps 756 mmHg 76%
    19:00 +15°C° 0.1 mm 2 mps 757 mmHg 81%
    20:00 +14°C° 0.1 mm 2 mps 757 mmHg 86%
    21:00 +12°C° 0 mm 3 mps 757 mmHg 87%
    22:00 +12°C° 0 mm 3 mps 757 mmHg 87%
    23:00 +11°C° 0 mm 3 mps 757 mmHg 88%

    Tomorrow, 23 August, Friday

    Time Temperature Precipitation Wind Pressure Humidity
    00:00 +11°C° 0 mm 3 mps 757 mmHg 89%
    01:00 +11°C° 0 mm 3 mps 757 mmHg 89%
    02:00 +10°C° 0 mm 3 mps 758 mmHg 90%
    03:00 +10°C° 0 mm 3 mps 758 mmHg 91%
    04:00 +10°C° 0 mm 3 mps 758 mmHg 92%
    05:00 +10°C° 0 mm 3 mps 758 mmHg 93%
    06:00 +11°C° 0 mm 3 mps 758 mmHg 88%
    07:00 +13°C° 0 mm 2 mps 758 mmHg 84%
    08:00 +14°C° 0 mm 2 mps 759 mmHg 80%
    09:00 +15°C° 0 mm 2 mps 759 mmHg 75%
    10:00 +16°C° 0 mm 2 mps 759 mmHg 69%
    11:00 +17°C° 0 mm 2 mps 759 mmHg 64%
    12:00 +17°C° 0.1 mm 2 mps 759 mmHg 64%
    13:00 +18°C° 0.1 mm 1 mps 759 mmHg 65%
    14:00 +18°C° 0.1 mm 1 mps 759 mmHg 66%
    15:00 +18°C° 0.2 mm 1 mps 759 mmHg 69%
    16:00 +18°C° 0.2 mm 1 mps 759 mmHg 72%
    17:00 +15°C° 0.2 mm 0 mps 759 mmHg 75%
    18:00 +15°C° 0.3 mm 1 mps 758 mmHg 78%
    19:00 +14°C° 0.3 mm 1 mps 758 mmHg 82%
    20:00 +13°C° 0.3 mm 2 mps 758 mmHg 85%
    21:00 +13°C° 0.1 mm 2 mps 758 mmHg 86%
    22:00 +13°C° 0.1 mm 2 mps 758 mmHg 88%
    23:00 +12°C° 0.1 mm 2 mps 758 mmHg 89%

    Day after tomorrow, 24 August, Saturday

    Time Temperature Precipitation Wind Pressure Humidity
    00:00 +12°C° 0.2 mm 2 mps 758 mmHg 91%
    01:00 +12°C° 0.2 mm 2 mps 757 mmHg 92%
    02:00 +12°C° 0.2 mm 1 mps 757 mmHg 93%
    03:00 +12°C° 0.6 mm 2 mps 757 mmHg 94%
    04:00 +12°C° 0.6 mm 2 mps 757 mmHg 95%
    05:00 +11°C° 0.6 mm 3 mps 756 mmHg 96%
    06:00 +11°C° 0.9 mm 3 mps 756 mmHg 95%
    07:00 +11°C° 0.9 mm 3 mps 756 mmHg 95%
    08:00 +12°C° 0.9 mm 3 mps 756 mmHg 94%
    09:00 +12°C° 0.4 mm 3 mps 756 mmHg 93%
    10:00 +12°C° 0.4 mm 4 mps 756 mmHg 91%
    11:00 +13°C° 0.4 mm 4 mps 756 mmHg 90%
    12:00 +12°C° 0.3 mm 4 mps 756 mmHg 90%
    13:00 +12°C° 0.3 mm 4 mps 757 mmHg 91%
    14:00 +11°C° 0.3 mm 4 mps 757 mmHg 91%
    15:00 +11°C° 0.2 mm 4 mps 757 mmHg 91%
    16:00 +11°C° 0.2 mm 4 mps 758 mmHg 91%
    17:00 +11°C° 0.2 mm 4 mps 758 mmHg 92%
    18:00 +11°C° 0.1 mm 4 mps 759 mmHg 92%
    19:00 +11°C° 0.1 mm 4 mps 760 mmHg 92%
    20:00 +11°C° 0.1 mm 4 mps 760 mmHg 92%
    21:00 +10°C° 0.1 mm 4 mps 761 mmHg 92%
    22:00 +10°C° 0.1 mm 4 mps 762 mmHg 91%
    23:00 +8°C° 0.1 mm 4 mps 762 mmHg 90%

    25 August, Sunday

    Time Temperature Precipitation Wind Pressure Humidity
    00:00 +8°C° 0.1 mm 4 mps 763 mmHg 90%
    01:00 +8°C° 0.1 mm 3 mps 764 mmHg 89%
    02:00 +8°C° 0.1 mm 3 mps 764 mmHg 88%
    03:00 +8°C° 0 mm 3 mps 765 mmHg 89%
    04:00 +8°C° 0 mm 2 mps 765 mmHg 89%
    05:00 +8°C° 0 mm 2 mps 765 mmHg 90%
    06:00 +8°C° 0 mm 2 mps 766 mmHg 87%
    07:00 +8°C° 0 mm 3 mps 766 mmHg 85%
    08:00 +8°C° 0 mm 3 mps 767 mmHg 82%
    09:00 +9°C° 0 mm 3 mps 767 mmHg 75%
    10:00 +10°C° 0 mm 3 mps 767 mmHg 67%
    11:00 +11°C° 0 mm 3 mps 767 mmHg 60%
    12:00 +12°C° 0 mm 2 mps 767 mmHg 59%
    13:00 +12°C° 0 mm 2 mps 767 mmHg 57%
    14:00 +12°C° 0 mm 2 mps 767 mmHg 56%
    15:00 +12°C° 0 mm 2 mps 767 mmHg 57%
    16:00 +12°C° 0 mm 1 mps 767 mmHg 58%
    17:00 +12°C° 0 mm 1 mps 767 mmHg 59%
    18:00 +11°C° 0 mm 1 mps 767 mmHg 63%
    19:00 +10°C° 0 mm 1 mps 767 mmHg 67%
    20:00 +8°C° 0 mm 2 mps 767 mmHg 71%
    21:00 +8°C° 0 mm 2 mps 767 mmHg 73%
    22:00 +8°C° 0 mm 2 mps 767 mmHg 75%
    23:00 +8°C° 0 mm 3 mps 767 mmHg 78%

    26 August, Monday

    Time Temperature Precipitation Wind Pressure Humidity
    00:00 +8°C° 0 mm 3 mps 766 mmHg 78%
    01:00 +9°C° 0 mm 3 mps 765 mmHg 79%
    02:00 +8°C° 0 mm 4 mps 765 mmHg 80%
    03:00 +8°C° 0.7 mm 4 mps 764 mmHg 84%
    04:00 +8°C° 0.7 mm 4 mps 764 mmHg 89%
    05:00 +10°C° 0.7 mm 4 mps 763 mmHg 93%
    06:00 +10°C° 0.4 mm 4 mps 762 mmHg 92%
    07:00 +10°C° 0.4 mm 5 mps 762 mmHg 91%
    08:00 +12°C° 0.4 mm 5 mps 761 mmHg 89%
    09:00 +12°C° 0.3 mm 5 mps 761 mmHg 90%
    10:00 +12°C° 0.3 mm 4 mps 761 mmHg 91%
    11:00 +12°C° 0.3 mm 4 mps 760 mmHg 91%
    12:00 +13°C° 0.1 mm 4 mps 760 mmHg 92%
    13:00 +13°C° 0.1 mm 4 mps 760 mmHg 92%
    14:00 +13°C° 0.1 mm 4 mps 759 mmHg 92%
    15:00 +13°C° 0.2 mm 4 mps 759 mmHg 92%
    16:00 +13°C° 0.2 mm 3 mps 759 mmHg 92%
    17:00 +13°C° 0.2 mm 3 mps 759 mmHg 92%
    18:00 +13°C° 0.1 mm 3 mps 758 mmHg 93%
    19:00 +13°C° 0.1 mm 3 mps 758 mmHg 93%
    20:00 +13°C° 0.1 mm 3 mps 758 mmHg 94%
    21:00 +13°C° 0.1 mm 3 mps 758 mmHg 94%
    22:00 +12°C° 0.1 mm 3 mps 758 mmHg 94%
    23:00 +12°C° 0.1 mm 3 mps 757 mmHg 94%

    27 August, Tuesday

    Time Temperature Precipitation Wind Pressure Humidity
    00:00 +12°C° 0.1 mm 3 mps 757 mmHg 95%
    01:00 +13°C° 0.1 mm 2 mps 757 mmHg 96%
    02:00 +13°C° 0.1 mm 2 mps 756 mmHg 97%
    03:00 +13°C° 0.4 mm 2 mps 756 mmHg 97%
    04:00 +13°C° 0.4 mm 2 mps 756 mmHg 97%
    05:00 +13°C° 0.4 mm 2 mps 755 mmHg 97%
    06:00 +13°C° 0.1 mm 2 mps 755 mmHg 96%
    07:00 +14°C° 0.1 mm 2 mps 755 mmHg 95%
    08:00 +14°C° 0.1 mm 2 mps 754 mmHg 93%
    09:00 +13°C° 0.2 mm 3 mps 754 mmHg 93%
    10:00 +13°C° 0.2 mm 3 mps 754 mmHg 93%
    11:00 +13°C° 0.2 mm 3 mps 753 mmHg 93%
    12:00 +14°C° 0.1 mm 3 mps 753 mmHg 91%
    13:00 +16°C° 0.1 mm 3 mps 753 mmHg 89%
    14:00 +15°C° 0.1 mm 4 mps 752 mmHg 87%
    15:00 +17°C° 0 mm 4 mps 752 mmHg 83%
    16:00 +18°C° 0 mm 4 mps 752 mmHg 78%
    17:00 +18°C° 0 mm 4 mps 752 mmHg 73%
    18:00 +17°C° 0 mm 4 mps 752 mmHg 73%
    19:00 +15°C° 0 mm 4 mps 753 mmHg 74%
    20:00 +13°C° 0 mm 5 mps 753 mmHg 74%
    21:00 +13°C° 0 mm 4 mps 753 mmHg 76%
    22:00 +12°C° 0 mm 4 mps 754 mmHg 79%
    23:00 +11°C° 0 mm 3 mps 754 mmHg 82%
    Show more